Regional Weather Roundup
Issued by NWS

Home | Current Version | Previous Version | Graphics & Text | Print | Product List | Glossary On
Versions: 1 2 3 4 5 6 7 8 9 10 11 12 13 14 15 16 17 18 19 20 21 22 23 24 25 26 27 28 29 30 31 32 33 34 35 36 37 38 39 40 41 42 43 44 45 46 47 48 49 50
174
ASUS45 KBOI 260310
RWRID

IDAHO REGIONAL WEATHER ROUNDUP
NATIONAL WEATHER SERVICE BOISE ID
900 PM MDT SAT MAR 25 2017

NOTE: "FAIR" INDICATES FEW OR NO CLOUDS BELOW 12000 FEET
WITH NO SIGNIFICANT WEATHER AND/OR OBSTRUCTIONS TO VISIBILITY

IDZ012-014-260400-
SOUTHWEST IDAHO


CITY           SKY/WX    TMP DP  RH WIND       PRES   REMARKS
BOISE          PTCLDY    51  27  39 CALM      29.99F
CALDWELL       PTCLDY    48  34  58 E5        29.99F
MOUNTAIN HOME  CLEAR     47  34  60 NW6       30.00S
$$

IDZ016-017-260400-
SOUTHCENTRAL IDAHO


CITY           SKY/WX    TMP DP  RH WIND       PRES   REMARKS
BURLEY         CLEAR     43  28  55 W9        30.00R
JEROME         CLEAR     43  30  60 SW8       30.01R
TWIN FALLS     PTCLDY    39  30  70 SW9       30.01S WCI  33
$$

IDZ019>023-260400-
SOUTHEAST IDAHO


CITY           SKY/WX    TMP DP  RH WIND       PRES   REMARKS
IDAHO FALLS    CLEAR     44  29  55 S10       29.96R
POCATELLO      CLEAR     42  29  59 SW13      30.00R
REXBURG        CLOUDY    43  27  53 S8        29.95R
$$

IDZ006-010-011-018-031-032-260400-
CENTRAL IDAHO MOUNTAINS


CITY           SKY/WX    TMP DP  RH WIND       PRES   REMARKS
MCCALL         PTCLDY    35  26  69 CALM      29.97F
HAILEY         CLEAR     43  21  42 NW3       29.99R
STANLEY          N/A     30  21  69 CALM      30.01S
SALMON         MOCLDY    46  23  39 NE5       29.93R
CHALLIS        CLEAR     42  19  39 W9        29.97R
$$

IDZ002-004-006-007-026-260400-
NORTHERN IDAHO


CITY           SKY/WX    TMP DP  RH WIND       PRES   REMARKS
LEWISTON       CLEAR     45  36  70 SE5       30.04R
LOWELL           N/A     43  39  86 CALM      30.09F
COEUR D`ALENE  PTCLDY    41  33  73 S9        29.99S
MULLAN PASS    CLOUDY    27  25  92 VRB5      29.94S WCI  22
$$




USA.gov is the U.S. government's official web portal to all federal, state and local government web resources and services.